Flag for U.S.A. Weather past 2 weeks in Thousand Oaks, California, U.S.A.

Now
69 °F

Clear.


Feels Like: 69 °F
Forecast: 62 / 86 °F
Wind: No wind

Location: Camarillo Airport

Current Time: Jul 22, 2014 at 10:57:22 PM

Latest Report: Jul 22, 2014 at 9:55 PM


Visibility: 10 mi

Pressure: 30.04 "Hg

Humidity: 73%

Dew point: 60 °F

Location of Thousand OaksLocation

Historic Weather in Thousand Oaks — Graph

°F

Thousand Oaks temperature yesterday

Maximum temperature yesterday: 79 °F (at 1:55 PM)
Minimum temperature yesterday: 63 °F (at 3:55 AM)
Average temperature yesterday: 70 °F

Past Weeks' High & Low Weather Summary

 TemperatureHumidityPressure
High83 °F (Jul 13, 2:55 PM)87% (Jul 8, 2:55 AM)30.09 "Hg (Jul 8, 2:55 AM)
Low60 °F (Jul 18, 4:55 AM)48% (Jul 13, 1:55 PM)29.86 "Hg (Jul 13, 6:55 PM)
Average70 °F71%29.99 "Hg
* Reported Jul 7 8:55 PM — Jul 22 8:55 PM, Thousand Oaks, Weather by CustomWeather, © 2014

Note: Actual official high and low records may vary slightly from our data, if they occured in-between our weather recording intervals... More about our weather records

Advertising

Thousand Oaks weather history for previous 24 hours

 ConditionsComfort  
Time TempWeatherWind HumidityBarometerVisibility
8:55 PM
Jul 22
69 °FSunny.5 mph73%30.03 "Hg10 mi
7:55 PM72 °FSunny.7 mph64%30.03 "Hg10 mi
6:55 PM74 °FSunny.13 mph57%30.02 "Hg10 mi
5:55 PM77 °FSunny.13 mph52%30.02 "Hg10 mi
4:55 PM78 °FSunny.12 mph50%30.03 "Hg10 mi
9:55 AM74 °FSunny.8 mph64%30.08 "Hg10 mi
8:55 AM70 °FSunny.No wind73%30.08 "Hg10 mi
7:55 AM67 °FSunny.No wind76%30.07 "Hg10 mi
6:55 AM65 °FClear.No wind78%30.06 "Hg10 mi
5:55 AM60 °FClear.3 mph83%30.05 "Hg10 mi
4:55 AM63 °FClear.No wind84%30.04 "Hg10 mi
3:55 AM63 °FClear.5 mph84%30.05 "Hg10 mi
2:55 AM64 °FClear.No wind84%30.04 "Hg10 mi
1:55 AM65 °FClear.No wind81%30.03 "Hg10 mi
12:55 AM64 °FClear.No wind81%30.04 "Hg10 mi
11:55 PM
Jul 21
65 °FClear.3 mph81%30.04 "Hg10 mi
10:55 PM67 °FClear.3 mph81%30.03 "Hg10 mi
Weather by CustomWeather, © 2014

See weather overviewHow to use our weather pages